User: anonymous   Login
Location: Unspecified
(0.0000°N, 0.0000°E)
Time: 18:42:35
(UTC+00:00)
Language:

SWISSCUBE - Orbit

View from above orbital plane
View from above orbital plane
View from above satellite
View from above satellite

Ground track
Ground track

The orbit data is extracted from the following two-line orbital elements,

1 35932U 09051B   19080.13810670  .00000109  00000-0  35690-4 0  9998
2 35932  98.5766 243.5385 0008784  82.9269 277.2927 14.56254428503744
Epoch (UTC): 21 March 2019 03:18:52
Eccentricity: 0.0008784
inclination: 98.5766°
perigee height: 699 km
apogee height: 711 km
right ascension of ascending node: 243.5385°
argument of perigee: 82.9269°
revolutions per day: 14.56254428
mean anomaly at epoch: 277.2927°
orbit number at epoch: 50374

The dashed part of the orbit path shows where the satellite is in the earth's shadow,  

DLR